Powrót do katalogu

SL-3 DEB

AktywnySSO
NORAD 14209·DEBRIS·🇷🇺 Russia

Wystrzelony Jul 24, 1983 z Baikonur Cosmodrome

Loading…

Następne Przeloty (najbliższe 24 godziny)

TLE

ŚwieżeSource: Space-Track

Epoka: Sep 14, 2026, 10:35 UTC

1 14209U 83075C   26257.44146018  .00012203  00000-0  19258-3 0  9995
2 14209  97.2132 247.7964 0015424  80.0855 280.2139 15.53523759368099

Śledź SL-3 DEB w czasie rzeczywistym z AllMySat

Download on the App Store